Location: Canazei
(46.4667°N, 11.7667°E)
Time: 04:14:46
(UTC+00:00)

SL-8 Rocket - Pass Details

Date: 21 April 2021
Orbit: 958 x 989 km, 82.9° (Epoch: 10 May)

Event Time Altitude Azimuth Distance (km) Brightness Sun altitude
Rises 00:19:46 0° 351° (N) 3,694 7.9 -29.7°
Reaches altitude 10° 00:22:17 10° 352° (N) 2,746 7.1 -29.6°
Maximum altitude 00:28:37 86° 82° (E) 996 3.9 -29.2°
Enters shadow 00:28:56 81° 144° (SE) 1,004 3.9 -29.1°
